Showing default

UNICORN-2L, 58727

Orbit data source: Space-Track

UNICORN-2L, 58727 is a payload satellite owned by Alba Orbital (DE) in SSO that was launched on Fri, 01 Dec 2023 UTC via an FALCON 9 launch vehicle from the Air Force Western Test Range (AFWTR). Payload-class satellites include a variety of spacecraft equipped with specific instruments for various scientific and technological missions. These include communications satellites like Starlink; space stations such as the ISS; scientific satellites like the Hubble; Earth observation satellites from companies like Planet Labs, Umbra, and HawkEye 360; GPS; miniature CubeSats for education and research; and military/defense satellites.

Loading next visibility...
Identifier
58727, 2023-185R
Orbit
SSO
Country
Flag of DEDE / GER
Related business
Manufacturer
Alba Orbital
Mission
Operational Commercial Imaging
Bus & Motor
POCKETQUBE 3P, Unknown motor
Mass
~0.75 kg wet, ~0.75 kg dry
Launch date (UTC)
2023-12-01 (3 years ago)
Launch vehicle
FALCON 9
Launch site
Air Force Western Test Range (AFWTR)
Object type
Payload
Rocket body
Debris
Shape & HBR
Box + 2 Pan, 0.2 m
Radar Cross Section
0.016 m², Medium (>0.1 m² and < 1m²)

Expand to show TLE details & history
Last TLE update: 20 hours ago

TLE from 20 hours ago
0 UNICORN-2L
1 58727U 23185R   26207.65902772  .00009105  00000-0  40275-3 0  9999
2 58727  97.5381 281.5811 0013414 167.7817 192.3746 15.21833874140795
Epoch: 2026-07-26T15:48Z
TLE epoch observation values (Epoch: 2026-07-26T15:48:59.995Z)
Latitude
-0.00012°
Longitude
99.97736°
Altitude
512.413 km
Speed
7.603 km/s
True Right ascension
18h 46m 19s
True Declination
0° 00' 00"
Sunlit
Object was in full shadow at epoch
Visualization orbit readout
Latitude
Unknown
Longitude
Unknown
Altitude
Unknown
Speed
Unknown
Apparent Right ascension
Unknown
Apparent Declination
Unknown
Sunlit
N/A
Visualization observer readout
Local Sidereal Time
01:10:41
Azimuth
Unknown
Elevation
Unknown
Doppler factor
Unknown
Orbital elements
Apogee altitude
506.501 km
Perigee altitude
488.056 km
Semi-major axis
6,875.415 km
Eccentricity
0.00134
Inclination
97.5381°
RAAN
281.5811°
Arg. of periapsis
167.7817°
True anomaly
192.34171°
Mean anomaly
192.3746°
Eccentric anomaly
192.35815°
Mean motion
3.8071 °/min
Orbital period
94.56 mins
BSTAR
0.00040275
Loading maneuver chart data...
Computing Atmospheric mass density...
Loading historical data...
Loading historical data...
Loading historical data...
Loading historical data...
Loading historical data...
Loading historical data...
Loading historical data...

Documentation

Showing up to 5 results
|